Location: Aldenham
(51.6667°N, 0.3500°W)
Time: 00:47:25
(UTC+00:00)

Cosmos 2297 Rocket - Pass Details

Date: 18 November 2025
Orbit: 837 x 844 km, 71.0° (Epoch: 13 December)

Event Time Altitude Azimuth Distance (km) Brightness Sun altitude
Rises 18:26:28 0° 325° (NW) 3,410 5.8 -21.2°
Reaches altitude 10° 18:30:18 10° 350° (N) 2,475 4.7 -21.8°
Enters shadow 18:33:00 14° 19° (NNE) 2,210 4.1 -22.2°
